SM6PGP-2 Weather Reports


Display with metric or nautical units.
time (UTC)temp
F
wind
direction
speed
MPH
gust
MPH
rain 1hr
in
rain 24hr
in
rain mn
in
humidity
%
barometer
mb
20210616173256 63 180 5.0 7.0 0.00 0.00 0.00 55 1016.9
20210616172750 64 180 10.0 10.0 0.00 0.00 0.00 53 1016.8
20210616172245 65 180 11.0 11.0 0.00 0.00 0.00 53 1016.9
20210616171740 65 180 10.0 11.0 0.00 0.00 0.00 53 1016.9
20210616171235 64 189 10.0 11.0 0.00 0.00 0.00 55 1016.8
20210616170730 64 198 9.0 12.0 0.00 0.00 0.00 54 1016.8
20210616170224 64 171 7.0 12.0 0.00 0.00 0.00 55 1016.9
20210616165719 64 202 8.0 12.0 0.00 0.00 0.00 55 1017.0
20210616164709 63 180 5.0 10.0 0.00 0.00 0.00 55 1016.9
20210616164204 63 184 8.0 12.0 0.00 0.00 0.00 53 1016.9
20210616163658 64 189 7.0 10.0 0.00 0.00 0.00 54 1016.9
20210616163153 64 193 7.0 11.0 0.00 0.00 0.00 53 1016.9
20210616162648 64 180 8.0 11.0 0.00 0.00 0.00 51 1016.9
20210616162143 64 180 8.0 12.0 0.00 0.00 0.00 50 1016.9
20210616161638 64 180 10.0 10.0 0.00 0.00 0.00 51 1016.9
20210616161132 64 171 8.0 11.0 0.00 0.00 0.00 51 1016.8
20210616160627 64 157 12.0 13.0 0.00 0.00 0.00 50 1016.8
20210616160122 64 184 10.0 12.0 0.00 0.00 0.00 49 1017.0
20210616155617 65 180 11.0 14.0 0.00 0.00 0.00 48 1017.1
20210616155112 65 135 9.0 13.0 0.00 0.00 0.00 49 1017.2
20210616154606 65 180 9.0 14.0 0.00 0.00 0.00 48 1017.2
20210616154101 65 153 8.0 14.0 0.00 0.00 0.00 48 1017.1
20210616153556 65 135 12.0 13.0 0.00 0.00 0.00 47 1017.0
20210616153051 66 157 9.0 14.0 0.00 0.00 0.00 46 1017.1
20210616152546 66 180 9.0 11.0 0.00 0.00 0.00 47 1017.2
20210616152040 66 180 9.0 12.0 0.00 0.00 0.00 45 1017.2
20210616151535 66 171 10.0 13.0 0.00 0.00 0.00 46 1017.1
20210616151030 65 144 9.0 12.0 0.00 0.00 0.00 45 1017.2
20210616150525 65 189 10.0 14.0 0.00 0.00 0.00 44 1017.2
20210616150020 65 225 12.0 13.0 0.00 0.00 0.00 44 1017.2
20210616145514 65 193 8.0 13.0 0.00 0.00 0.00 44 1017.2
20210616145009 65 198 8.0 13.0 0.00 0.00 0.00 44 1017.2
20210616144504 65 180 9.0 13.0 0.00 0.00 0.00 43 1017.2
20210616143959 65 184 9.0 10.0 0.00 0.00 0.00 43 1017.3
20210616143454 65 180 9.0 13.0 0.00 0.00 0.00 40 1017.3
20210616142948 65 180 6.0 10.0 0.00 0.00 0.00 42 1017.3
20210616142443 65 171 8.0 11.0 0.00 0.00 0.00 41 1017.3
20210616141939 65 180 10.0 12.0 0.00 0.00 0.00 42 1017.3
20210616141433 65 220 10.0 14.0 0.00 0.00 0.00 42 1017.4
20210616140928 65 198 7.0 11.0 0.00 0.00 0.00 42 1017.4
20210616140423 64 225 11.0 20.0 0.00 0.00 0.00 39 1017.3
20210616135917 64 202 7.0 23.0 0.00 0.00 0.00 41 1017.3
20210616135412 64 193 10.0 12.0 0.00 0.00 0.00 39 1017.5
20210616134907 64 180 8.0 13.0 0.00 0.00 0.00 45 1017.4
20210616134402 63 171 8.0 12.0 0.00 0.00 0.00 46 1017.5
20210616133857 63 193 14.0 14.0 0.00 0.00 0.00 50 1017.7
20210616133351 63 180 10.0 14.0 0.00 0.00 0.00 50 1017.6
20210616132846 63 180 13.0 15.0 0.00 0.00 0.00 51 1017.6
20210616132341 63 180 11.0 14.0 0.00 0.00 0.00 51 1017.6
20210616131836 63 180 8.0 16.0 0.00 0.00 0.00 51 1017.6
20210616131331 64 184 11.0 16.0 0.00 0.00 0.00 51 1017.8
20210616130825 64 180 12.0 15.0 0.00 0.00 0.00 47 1017.7
20210616130320 64 207 14.0 16.0 0.00 0.00 0.00 48 1017.7
20210616125815 64 180 10.0 13.0 0.00 0.00 0.00 41 1017.7
20210616125310 64 193 7.0 16.0 0.00 0.00 0.00 45 1017.7
20210616124805 64 180 10.0 13.0 0.00 0.00 0.00 47 1017.8
20210616124259 63 153 6.0 12.0 0.00 0.00 0.00 49 1017.8
20210616123754 63 189 10.0 18.0 0.00 0.00 0.00 49 1018.0
20210616123249 63 189 12.0 13.0 0.00 0.00 0.00 51 1018.0
20210616122234 62 180 13.0 16.0 0.00 0.00 0.00 50 1018.1
20210616121728 63 193 15.0 17.0 0.00 0.00 0.00 51 1018.1
20210616121223 63 211 13.0 18.0 0.00 0.00 0.00 48 1018.0
20210616120718 63 184 10.0 15.0 0.00 0.00 0.00 51 1017.9
20210616120213 63 202 10.0 16.0 0.00 0.00 0.00 52 1018.0
20210616115708 63 162 11.0 16.0 0.00 0.00 0.00 51 1018.0
20210616115203 63 189 13.0 16.0 0.00 0.00 0.00 53 1018.0
20210616114657 62 180 11.0 17.0 0.00 0.00 0.00 51 1018.1
20210616114152 62 144 11.0 15.0 0.00 0.00 0.00 51 1018.1
20210616113647 62 175 13.0 16.0 0.00 0.00 0.00 51 1018.2
20210616113142 62 171 11.0 15.0 0.00 0.00 0.00 53 1018.3
20210616112128 62 175 16.0 16.0 0.00 0.00 0.00 52 1018.4
20210616111623 62 166 8.0 17.0 0.00 0.00 0.00 51 1018.3
20210616111118 62 162 12.0 15.0 0.00 0.00 0.00 54 1018.3
20210616110613 62 180 13.0 13.0 0.00 0.00 0.00 54 1018.2
20210616110108 62 153 10.0 15.0 0.00 0.00 0.00 53 1018.3
20210616105602 62 144 11.0 16.0 0.00 0.00 0.00 54 1018.2
20210616105057 62 180 13.0 15.0 0.00 0.00 0.00 56 1018.3
20210616104552 62 153 11.0 15.0 0.00 0.00 0.00 57 1018.3
20210616104047 62 180 12.0 15.0 0.00 0.00 0.00 56 1018.3
20210616103542 62 171 12.0 12.0 0.00 0.00 0.00 58 1018.4
20210616103036 62 198 13.0 17.0 0.00 0.00 0.00 57 1018.4
20210616102531 62 180 13.0 16.0 0.00 0.00 0.00 58 1018.4
20210616102026 62 180 10.0 16.0 0.00 0.00 0.00 59 1018.3
20210616101521 62 171 9.0 14.0 0.00 0.00 0.00 60 1018.3
20210616101016 62 189 11.0 17.0 0.00 0.00 0.00 60 1018.3
20210616100510 62 135 10.0 14.0 0.00 0.00 0.00 59 1018.2
20210616100005 62 166 10.0 15.0 0.00 0.00 0.00 61 1018.3
20210616095501 61 184 8.0 14.0 0.00 0.00 0.00 63 1018.2
20210616094955 61 180 11.0 16.0 0.00 0.00 0.00 59 1018.1
20210616094450 61 171 10.0 26.0 0.00 0.00 0.00 60 1018.1
20210616093944 61 180 10.0 19.0 0.00 0.00 0.00 61 1018.1
20210616093439 61 175 12.0 23.0 0.00 0.00 0.00 60 1018.2
20210616092935 61 180 14.0 15.0 0.00 0.00 0.00 60 1018.1
20210616092429 61 180 10.0 15.0 0.00 0.00 0.00 62 1018.1
20210616091924 61 171 4.0 14.0 0.00 0.00 0.00 62 1018.1
20210616091419 61 180 11.0 12.0 0.00 0.00 0.00 61 1018.1
20210616090913 61 216 9.0 18.0 0.00 0.00 0.00 62 1018.0
20210616090409 61 135 6.0 13.0 0.00 0.00 0.00 62 1018.0
20210616085903 61 207 11.0 14.0 0.00 0.00 0.00 57 1018.0
20210616085358 62 184 8.0 11.0 0.00 0.00 0.00 56 1018.1
20210616084853 63 207 8.0 10.0 0.00 0.00 0.00 56 1018.0
20210616084347 63 202 11.0 13.0 0.00 0.00 0.00 56 1018.0
20210616083843 63 189 5.0 11.0 0.00 0.00 0.00 58 1018.0
20210616083337 63 225 11.0 11.0 0.00 0.00 0.00 55 1017.9
20210616082832 63 225 8.0 14.0 0.00 0.00 0.00 58 1017.9
20210616082327 63 193 8.0 10.0 0.00 0.00 0.00 57 1017.9
20210616081821 63 180 8.0 12.0 0.00 0.00 0.00 57 1017.9
20210616081317 63 207 9.0 15.0 0.00 0.00 0.00 57 1018.1
20210616080811 62 198 11.0 11.0 0.00 0.00 0.00 57 1018.2
20210616080306 62 229 9.0 11.0 0.00 0.00 0.00 60 1018.0
20210616075801 62 270 8.0 14.0 0.00 0.00 0.00 59 1018.0
20210616075255 61 247 7.0 8.0 0.00 0.00 0.00 61 1017.8
20210616074751 61 247 8.0 15.0 0.00 0.00 0.00 60 1017.9
20210616074245 61 162 5.0 12.0 0.00 0.00 0.00 63 1017.8
20210616073740 61 225 11.0 11.0 0.00 0.00 0.00 62 1017.9
20210616073235 60 225 10.0 13.0 0.00 0.00 0.00 64 1017.9
20210616072729 59 198 6.0 8.0 0.00 0.00 0.00 65 1017.9
20210616072225 59 189 10.0 13.0 0.00 0.00 0.00 65 1018.0
20210616071719 58 238 8.0 11.0 0.00 0.00 0.00 66 1017.9
20210616071214 58 225 6.0 10.0 0.00 0.00 0.00 67 1017.9
20210616070709 58 198 9.0 9.0 0.00 0.00 0.00 70 1018.1
20210616070203 57 225 8.0 14.0 0.00 0.00 0.00 68 1018.0
20210616065659 56 225 5.0 8.0 0.00 0.00 0.00 70 1018.1
20210616065153 56 234 7.0 13.0 0.00 0.00 0.00 69 1018.1
20210616064648 57 225 8.0 12.0 0.00 0.00 0.00 68 1018.0
20210616064143 57 270 6.0 8.0 0.00 0.00 0.00 67 1018.0
20210616063637 58 225 5.0 13.0 0.00 0.00 0.00 69 1018.0
20210616063133 58 306 6.0 8.0 0.00 0.00 0.00 69 1018.0
20210616062627 58 238 6.0 13.0 0.00 0.00 0.00 68 1018.1
20210616062122 58 252 6.0 11.0 0.00 0.00 0.00 70 1018.1
20210616061617 58 225 9.0 12.0 0.00 0.00 0.00 70 1018.1
20210616061111 57 207 8.0 12.0 0.00 0.00 0.00 71 1018.0
20210616060607 57 225 7.0 15.0 0.00 0.00 0.00 72 1017.9
20210616060101 56 270 11.0 11.0 0.00 0.00 0.00 72 1017.9
20210616055556 56 220 8.0 9.0 0.00 0.00 0.00 75 1017.9
20210616055051 55 270 13.0 13.0 0.00 0.00 0.00 74 1017.7
20210616054546 55 234 7.0 11.0 0.00 0.00 0.00 74 1017.8
20210616054041 55 279 4.0 14.0 0.00 0.00 0.00 74 1017.8
20210616053535 55 261 9.0 9.0 0.00 0.00 0.00 76 1017.8
20210616053030 54 225 9.0 9.0 0.00 0.00 0.00 76 1017.8
20210616052525 54 256 6.0 17.0 0.00 0.00 0.00 77 1017.9
20210616052020 54 234 8.0 13.0 0.00 0.00 0.00 77 1017.7
20210616051515 54 225 10.0 11.0 0.00 0.00 0.00 77 1017.8
20210616051009 54 229 8.0 12.0 0.00 0.00 0.00 77 1017.8
20210616050504 54 220 10.0 11.0 0.00 0.00 0.00 78 1017.7
20210616045959 54 256 5.0 13.0 0.00 0.00 0.00 77 1017.8
20210616045454 54 252 8.0 13.0 0.00 0.00 0.00 77 1017.7
20210616044949 54 229 9.0 12.0 0.00 0.00 0.00 77 1017.6
20210616044443 54 225 11.0 11.0 0.00 0.00 0.00 79 1017.6
20210616043938 54 234 4.0 7.0 0.00 0.00 0.00 79 1017.6
20210616043433 54 279 5.0 10.0 0.00 0.00 0.00 79 1017.5
20210616042928 54 270 8.0 8.0 0.00 0.00 0.00 81 1017.6
20210616042423 53 225 4.0 7.0 0.00 0.00 0.00 80 1017.6
20210616041917 53 261 5.0 7.0 0.00 0.00 0.00 83 1017.5
20210616041412 53 216 2.0 6.0 0.00 0.00 0.00 82 1017.5
20210616040907 52 225 4.0 6.0 0.00 0.00 0.00 84 1017.5
20210616040402 52 225 7.0 7.0 0.00 0.00 0.00 83 1017.4
20210616035857 52 225 6.0 9.0 0.00 0.00 0.00 83 1017.4
20210616035351 52 225 5.0 5.0 0.00 0.00 0.00 85 1017.3
20210616034846 51 270 3.0 4.0 0.00 0.00 0.00 84 1017.5
20210616034341 51 202 3.0 5.0 0.00 0.00 0.00 86 1017.4
20210616033836 50 256 4.0 8.0 0.00 0.00 0.00 85 1017.4
20210616033331 50 225 3.0 5.0 0.00 0.00 0.00 86 1017.3
20210616032825 50 162 2.0 3.0 0.00 0.00 0.00 85 1017.3
20210616032320 49 166 2.0 5.0 0.00 0.00 0.00 85 1017.3
20210616031815 49 252 3.0 5.0 0.00 0.00 0.00 85 1017.3
20210616031310 49 234 3.0 3.0 0.00 0.00 0.00 85 1017.3
20210616030805 49 180 3.0 3.0 0.00 0.00 0.00 85 1017.3
20210616030259 49 180 3.0 7.0 0.00 0.00 0.00 86 1017.1
20210616025754 49 225 4.0 9.0 0.00 0.00 0.00 86 1017.1
20210616025249 48 180 8.0 8.0 0.00 0.00 0.00 85 1017.1
20210616024744 48 180 3.0 4.0 0.00 0.00 0.00 85 1017.0
20210616024239 48 171 2.0 2.0 0.00 0.00 0.00 84 1017.0
20210616023733 48 121 2.0 3.0 0.00 0.00 0.00 85 1016.9
20210616023228 48 180 5.0 5.0 0.00 0.00 0.00 85 1016.8
20210616022723 48 180 3.0 4.0 0.00 0.00 0.00 84 1016.9
20210616022218 48 135 3.0 5.0 0.00 0.00 0.00 86 1016.9
20210616021713 47 130 2.0 4.0 0.00 0.00 0.00 83 1016.8
20210616021207 48 180 4.0 4.0 0.00 0.00 0.00 82 1016.9
20210616020702 48 180 3.0 3.0 0.00 0.00 0.00 84 1016.8
20210616020157 48 135 2.0 2.0 0.00 0.00 0.00 82 1017.0
20210616015652 48 126 1.0 3.0 0.00 0.00 0.00 81 1017.0
20210616015147 49 135 2.0 2.0 0.00 0.00 0.00 81 1016.9
20210616014641 49 171 3.0 3.0 0.00 0.00 0.00 81 1016.9
20210616014136 49 211 1.0 2.0 0.00 0.00 0.00 81 1016.9
20210616013631 49 153 4.0 4.0 0.00 0.00 0.00 81 1016.9
20210616013126 50 180 2.0 6.0 0.00 0.00 0.00 80 1017.0
20210616012621 50 180 5.0 7.0 0.00 0.00 0.00 80 1017.1
20210616012115 50 189 4.0 6.0 0.00 0.00 0.00 81 1017.2
20210616011610 50 180 5.0 6.0 0.00 0.00 0.00 81 1017.2
20210616011105 50 148 2.0 3.0 0.00 0.00 0.00 81 1017.2
20210616010600 50 175 3.0 4.0 0.00 0.00 0.00 81 1017.2
20210616010055 51 180 2.0 5.0 0.00 0.00 0.00 81 1017.1
20210616005549 50 216 5.0 5.0 0.00 0.00 0.00 82 1017.0
20210616005044 50 180 4.0 5.0 0.00 0.00 0.00 82 1017.2
20210616004539 50 175 5.0 6.0 0.00 0.00 0.00 82 1017.2
20210616004034 50 238 4.0 8.0 0.00 0.00 0.00 82 1017.1
20210616003529 49 180 2.0 4.0 0.00 0.00 0.00 81 1017.1
20210616003023 49 180 3.0 4.0 0.00 0.00 0.00 81 1017.0
20210616002518 49 144 4.0 4.0 0.00 0.00 0.00 81 1017.1
20210616002013 50 198 3.0 4.0 0.00 0.00 0.00 80 1017.1
20210616001508 50 180 6.0 6.0 0.00 0.00 0.00 81 1017.2
20210616001003 50 148 2.0 5.0 0.00 0.00 0.00 81 1017.1
20210616000457 50 162 1.0 5.0 0.00 0.00 0.00 81 1017.1
20210615235952 50 180 4.0 6.0 0.00 0.00 0.00 82 1017.0
20210615235447 49 225 3.0 8.0 0.00 0.00 0.00 83 1017.2
20210615234942 49 229 4.0 6.0 0.00 0.00 0.00 82 1017.1
20210615234437 49 234 4.0 7.0 0.00 0.00 0.00 82 1017.2
20210615233931 49 202 2.0 5.0 0.00 0.00 0.00 82 1017.1
20210615233426 49 234 4.0 6.0 0.00 0.00 0.00 81 1017.0
20210615232921 49 225 4.0 4.0 0.00 0.00 0.00 82 1017.1
20210615232416 49 180 4.0 6.0 0.00 0.00 0.00 82 1017.3
20210615231911 49 225 4.0 6.0 0.00 0.00 0.00 82 1017.3
20210615231405 48 216 3.0 6.0 0.00 0.00 0.00 81 1017.3
20210615230900 48 234 3.0 3.0 0.00 0.00 0.00 81 1017.4
20210615230355 48 225 4.0 4.0 0.00 0.00 0.00 81 1017.3
20210615225850 49 180 2.0 4.0 0.00 0.00 0.00 80 1017.4
20210615225345 49 207 3.0 5.0 0.00 0.00 0.00 80 1017.4
20210615224839 49 261 1.0 6.0 0.00 0.00 0.00 80 1017.4
20210615224334 49 198 5.0 6.0 0.00 0.00 0.00 80 1017.4
20210615223829 49 220 3.0 4.0 0.00 0.00 0.00 80 1017.4
20210615223324 49 180 2.0 2.0 0.00 0.00 0.00 80 1017.4
20210615222819 49 180 3.0 5.0 0.00 0.00 0.00 79 1017.6
20210615222313 49 225 3.0 8.0 0.00 0.00 0.00 79 1017.3
20210615221808 49 238 6.0 7.0 0.00 0.00 0.00 79 1017.3
20210615221303 50 193 2.0 4.0 0.00 0.00 0.00 78 1017.4
20210615220758 50 189 2.0 7.0 0.00 0.00 0.00 78 1017.3
20210615220253 50 261 4.0 7.0 0.00 0.00 0.00 78 1017.2
20210615215747 50 297 1.0 2.0 0.00 0.00 0.00 77 1017.3
20210615215242 50 180 1.0 5.0 0.00 0.00 0.00 77 1017.4
20210615214737 50 216 5.0 6.0 0.00 0.00 0.00 77 1017.2
20210615214232 50 243 8.0 8.0 0.00 0.00 0.00 77 1017.2
20210615213727 50 270 5.0 6.0 0.00 0.00 0.00 76 1017.3
20210615213221 50 99 0.0 12.0 0.00 0.00 0.00 76 1017.3
20210615212716 50 247 9.0 10.0 0.00 0.00 0.00 76 1017.1
20210615212211 50 234 4.0 7.0 0.00 0.00 0.00 76 1017.3
20210615211706 50 184 5.0 6.0 0.00 0.00 0.00 76 1017.3
20210615211201 50 225 7.0 9.0 0.00 0.00 0.00 76 1017.2
20210615210655 50 234 7.0 7.0 0.00 0.00 0.00 75 1017.1
20210615210150 50 225 4.0 8.0 0.00 0.00 0.00 75 1017.3
20210615205645 50 189 2.0 4.0 0.00 0.00 0.00 74 1017.2
20210615205140 51 225 5.0 5.0 0.00 0.00 0.00 74 1017.3
20210615204635 51 225 4.0 5.0 0.00 0.00 0.00 74 1017.2
20210615204129 51 225 5.0 6.0 0.00 0.00 0.00 73 1017.2
20210615203624 51 189 2.0 4.0 0.00 0.00 0.00 72 1017.2
20210615203119 52 225 6.0 8.0 0.00 0.00 0.00 71 1017.2
20210615202614 52 225 6.0 8.0 0.00 0.00 0.00 71 1017.1
20210615202109 52 225 5.0 7.0 0.00 0.00 0.00 70 1017.1
20210615201603 53 234 7.0 7.0 0.00 0.00 0.00 69 1017.2
20210615201058 53 270 3.0 10.0 0.00 0.00 0.00 69 1017.0
20210615200553 53 247 5.0 9.0 0.00 0.00 0.00 68 1017.1
20210615200048 53 229 4.0 8.0 0.00 0.00 0.00 68 1017.1
20210615195543 54 261 9.0 10.0 0.00 0.00 0.00 67 1017.2
20210615195037 54 247 8.0 9.0 0.00 0.00 0.00 67 1017.1
20210615194532 54 225 5.0 6.0 0.00 0.00 0.00 66 1017.2
20210615194027 55 225 5.0 10.0 0.00 0.00 0.00 66 1017.0
20210615193522 55 252 8.0 12.0 0.00 0.00 0.00 64 1017.0
20210615193017 56 265 4.0 9.0 0.00 0.00 0.00 64 1017.0
20210615192511 56 256 4.0 10.0 0.00 0.00 0.00 64 1017.1
20210615192006 56 252 5.0 9.0 0.00 0.00 0.00 63 1017.0
20210615191501 56 33 2.0 9.0 0.00 0.00 0.00 63 1016.9
20210615190956 56 261 4.0 10.0 0.00 0.00 0.00 63 1016.8
20210615190451 56 270 10.0 13.0 0.00 0.00 0.00 63 1016.9
20210615185945 57 270 13.0 17.0 0.00 0.00 0.00 63 1016.8
20210615185440 57 270 5.0 10.0 0.00 0.00 0.00 64 1016.8
20210615184935 57 306 4.0 7.0 0.00 0.00 0.00 64 1016.9
20210615184430 57 297 3.0 11.0 0.00 0.00 0.00 62 1017.0
20210615183925 58 301 5.0 9.0 0.00 0.00 0.00 62 1017.0
20210615183419 58 279 4.0 7.0 0.00 0.00 0.00 61 1016.9
20210615182914 59 279 5.0 8.0 0.00 0.00 0.00 61 1017.0
20210615182409 59 292 5.0 8.0 0.00 0.00 0.00 61 1016.8
20210615181904 59 286 4.0 9.0 0.00 0.00 0.00 61 1016.8
20210615181359 59 229 7.0 13.0 0.00 0.00 0.00 60 1016.9
20210615180853 59 252 9.0 10.0 0.00 0.00 0.00 59 1016.9
20210615180348 60 270 3.0 9.0 0.00 0.00 0.00 58 1016.9
20210615175843 60 270 12.0 12.0 0.00 0.00 0.00 57 1016.9
20210615175338 60 270 6.0 10.0 0.00 0.00 0.00 57 1016.9
20210615174833 60 288 8.0 11.0 0.00 0.00 0.00 57 1016.8
20210615174327 60 247 7.0 11.0 0.00 0.00 0.00 58 1016.7
20210615173822 60 261 6.0 12.0 0.00 0.00 0.00 58 1016.7